カタログに戻る

STARLINK-35611

運用中通信VLEO
NORAD 66427·PAYLOAD·🇺🇸 United States

打ち上げ Nov 11, 2025 から Cape Canaveral Space Force Station

Loading…

次のパス (今後24時間)

TLE

最新Source: CelesTrak SupGP

元期: Sep 14, 2026, 23:07 UTC

1 66427C 25259F   26257.96368056  .00027274  00000+0  98793-3 0  2570
2 66427  43.0022 285.3956 0001594 265.9327 275.8683 15.27562857    17

AllMySatでSTARLINK-35611をリアルタイム追跡

Download on the App Store